TimeCDT,TemperatureF,Dew PointF,Humidity,Sea Level PressureIn,VisibilityMPH,Wind Direction,Wind SpeedMPH,Gust SpeedMPH,PrecipitationIn,Events,Conditions,WindDirDegrees,DateUTC
12:15 AM,68.0,66.2,94,29.99,3.0,South,4.6,-,N/A,,Overcast,190,2013-10-02 05:15:00
12:35 AM,68.4,66.4,93,29.99,3.0,South,3.5,-,N/A,,Overcast,190,2013-10-02 05:35:00
12:55 AM,68.2,66.4,94,30.00,3.0,South,5.8,-,N/A,,Scattered Clouds,190,2013-10-02 05:55:00
1:15 AM,68.2,66.4,94,30.00,3.0,South,3.5,-,N/A,,Mostly Cloudy,190,2013-10-02 06:15:00
1:35 AM,68.0,66.2,94,30.00,3.0,SSW,3.5,-,N/A,,Mostly Cloudy,200,2013-10-02 06:35:00
1:55 AM,68.0,66.2,94,30.01,2.5,Calm,Calm,-,N/A,,Scattered Clouds,0,2013-10-02 06:55:00
2:15 AM,67.1,65.7,95,30.01,2.0,Calm,Calm,-,N/A,,Clear,0,2013-10-02 07:15:00
2:35 AM,66.9,65.5,95,30.00,2.0,Calm,Calm,-,N/A,,Clear,0,2013-10-02 07:35:00
2:55 AM,66.6,65.3,96,30.00,1.8,Calm,Calm,-,N/A,,Mist,0,2013-10-02 07:55:00
3:15 AM,66.2,64.8,95,30.00,1.8,Calm,Calm,-,N/A,,Mist,0,2013-10-02 08:15:00
3:35 AM,63.7,62.6,96,30.00,0.2,South,3.5,-,N/A,Fog,Fog,180,2013-10-02 08:35:00
3:55 AM,63.9,62.8,96,30.01,0.2,Calm,Calm,-,N/A,Fog,Fog,0,2013-10-02 08:55:00
4:15 AM,63.9,62.8,96,30.01,0.2,Calm,Calm,-,N/A,Fog,Fog,0,2013-10-02 09:15:00
4:35 AM,63.9,63.0,97,30.01,0.2,Calm,Calm,-,N/A,Fog,Fog,0,2013-10-02 09:35:00
4:55 AM,64.0,63.1,97,30.02,0.2,Calm,Calm,-,N/A,Fog,Fog,0,2013-10-02 09:55:00
5:15 AM,64.2,63.3,97,30.02,0.2,Calm,Calm,-,N/A,Fog,Fog,0,2013-10-02 10:15:00
5:35 AM,64.4,63.5,97,30.02,0.2,Calm,Calm,-,N/A,Fog,Fog,0,2013-10-02 10:35:00
5:55 AM,64.6,63.7,97,30.03,0.2,Calm,Calm,-,N/A,Fog,Fog,0,2013-10-02 10:55:00
6:15 AM,64.9,64.0,97,30.03,0.2,Calm,Calm,-,N/A,Fog,Fog,0,2013-10-02 11:15:00
6:35 AM,65.3,64.4,97,30.03,0.2,Calm,Calm,-,N/A,Fog,Fog,0,2013-10-02 11:35:00
6:55 AM,65.3,64.4,97,30.04,0.2,Calm,Calm,-,N/A,Fog,Fog,0,2013-10-02 11:55:00
7:15 AM,65.5,64.6,97,30.04,0.2,Calm,Calm,-,N/A,Fog,Fog,0,2013-10-02 12:15:00
7:35 AM,65.8,64.9,97,30.04,0.2,Calm,Calm,-,N/A,Fog,Fog,0,2013-10-02 12:35:00
7:55 AM,66.4,65.5,97,30.05,0.2,Calm,Calm,-,N/A,Fog,Fog,0,2013-10-02 12:55:00
8:15 AM,67.1,66.2,97,30.05,0.2,Calm,Calm,-,N/A,Fog,Fog,0,2013-10-02 13:15:00
8:35 AM,67.5,66.6,97,30.05,0.2,South,3.5,-,N/A,Fog,Fog,180,2013-10-02 13:35:00
8:55 AM,68.2,67.3,97,30.05,0.2,Calm,Calm,-,N/A,Fog,Fog,0,2013-10-02 13:55:00
9:15 AM,68.9,68.0,97,30.07,0.2,Calm,Calm,-,N/A,Fog,Fog,0,2013-10-02 14:15:00
9:35 AM,68.7,67.8,97,30.06,0.2,South,3.5,-,N/A,Fog,Fog,190,2013-10-02 14:35:00
9:55 AM,69.1,68.2,97,30.06,2.0,Calm,Calm,-,N/A,,Overcast,0,2013-10-02 14:55:00
10:15 AM,69.1,68.2,97,30.06,3.0,Calm,Calm,-,N/A,,Overcast,0,2013-10-02 15:15:00
10:35 AM,69.8,68.9,97,30.06,3.0,Calm,Calm,-,N/A,,Overcast,0,2013-10-02 15:35:00
10:55 AM,69.8,68.9,97,30.06,5.0,Calm,Calm,-,N/A,,Overcast,0,2013-10-02 15:55:00
11:15 AM,70.7,69.6,96,30.06,7.0,South,3.5,-,N/A,,Overcast,180,2013-10-02 16:15:00
11:35 AM,71.8,68.2,88,30.05,10.0,Calm,Calm,-,N/A,,Overcast,0,2013-10-02 16:35:00
11:55 AM,74.3,68.5,82,30.05,10.0,Calm,Calm,-,N/A,,Overcast,0,2013-10-02 16:55:00
12:15 PM,75.6,68.0,77,30.04,10.0,South,3.5,-,N/A,,Overcast,170,2013-10-02 17:15:00
12:35 PM,76.8,67.3,72,30.04,10.0,Calm,Calm,-,N/A,,Overcast,0,2013-10-02 17:35:00
12:55 PM,78.3,66.7,68,30.03,10.0,Calm,Calm,-,N/A,,Mostly Cloudy,0,2013-10-02 17:55:00
1:15 PM,79.0,66.2,65,30.02,10.0,SE,4.6,-,N/A,,Scattered Clouds,130,2013-10-02 18:15:00
1:35 PM,80.8,66.2,61,30.01,10.0,SSE,3.5,-,N/A,,Scattered Clouds,150,2013-10-02 18:35:00
1:55 PM,80.8,65.5,59,29.99,10.0,Calm,Calm,-,N/A,,Scattered Clouds,0,2013-10-02 18:55:00
2:15 PM,82.2,65.8,57,29.99,10.0,SE,5.8,-,N/A,,Overcast,130,2013-10-02 19:15:00
2:35 PM,81.1,65.8,60,29.99,10.0,SSE,6.9,-,N/A,,Mostly Cloudy,150,2013-10-02 19:35:00
2:55 PM,82.6,65.8,57,29.98,10.0,South,4.6,-,N/A,,Mostly Cloudy,180,2013-10-02 19:55:00
3:15 PM,83.3,64.4,53,29.97,10.0,South,3.5,-,N/A,,Scattered Clouds,170,2013-10-02 20:15:00
3:35 PM,83.5,64.6,53,29.97,10.0,SSE,4.6,-,N/A,,Clear,160,2013-10-02 20:35:00
3:55 PM,82.0,63.9,54,29.96,10.0,Calm,Calm,-,N/A,,Clear,0,2013-10-02 20:55:00
4:15 PM,83.7,63.9,51,29.95,10.0,SSE,5.8,-,N/A,,Clear,150,2013-10-02 21:15:00
4:35 PM,82.2,64.0,54,29.96,10.0,SSE,5.8,-,N/A,,Clear,160,2013-10-02 21:35:00
4:55 PM,82.0,63.9,54,29.96,10.0,SSE,8.1,-,N/A,,Scattered Clouds,160,2013-10-02 21:55:00
5:15 PM,80.6,65.3,59,29.96,10.0,SSE,6.9,-,N/A,,Scattered Clouds,150,2013-10-02 22:15:00
5:35 PM,79.7,65.3,61,29.96,10.0,SE,5.8,-,N/A,,Clear,140,2013-10-02 22:35:00
5:55 PM,79.0,65.5,63,29.97,10.0,SE,9.2,-,N/A,,Scattered Clouds,140,2013-10-02 22:55:00
6:15 PM,78.3,65.7,65,29.96,10.0,SE,3.5,-,N/A,,Clear,140,2013-10-02 23:15:00
6:35 PM,77.4,65.5,67,29.97,10.0,SE,5.8,-,N/A,,Clear,130,2013-10-02 23:35:00
6:55 PM,76.1,65.5,70,29.97,10.0,SE,5.8,-,N/A,,Clear,130,2013-10-02 23:55:00
7:15 PM,75.7,65.8,71,29.96,10.0,SE,6.9,-,N/A,,Clear,140,2013-10-03 00:15:00
7:35 PM,74.7,66.6,76,29.96,10.0,SE,5.8,-,N/A,,Clear,140,2013-10-03 00:35:00
7:55 PM,74.3,67.1,78,29.96,7.0,SE,6.9,-,N/A,,Clear,130,2013-10-03 00:55:00
8:15 PM,73.8,67.5,81,29.96,7.0,SE,5.8,-,N/A,,Mostly Cloudy,140,2013-10-03 01:15:00
8:35 PM,73.4,68.0,83,29.97,7.0,SSE,8.1,-,N/A,,Scattered Clouds,150,2013-10-03 01:35:00
8:55 PM,73.0,68.0,84,29.97,4.0,SSE,6.9,-,N/A,,Haze,150,2013-10-03 01:55:00
9:15 PM,72.3,68.0,86,29.97,3.0,SSE,8.1,-,N/A,,Clear,160,2013-10-03 02:15:00
9:35 PM,71.6,68.0,88,29.97,2.5,SSE,8.1,-,N/A,,Clear,150,2013-10-03 02:35:00
9:55 PM,70.9,68.0,91,29.97,2.5,SSE,8.1,-,N/A,,Scattered Clouds,150,2013-10-03 02:55:00
10:15 PM,70.7,67.8,91,29.98,2.5,SSE,6.9,-,N/A,,Scattered Clouds,160,2013-10-03 03:15:00
10:35 PM,70.3,67.8,92,29.98,3.0,South,8.1,-,N/A,,Clear,170,2013-10-03 03:35:00
10:55 PM,70.0,67.6,92,29.98,2.5,SSE,6.9,-,N/A,,Clear,160,2013-10-03 03:55:00
11:15 PM,69.6,67.3,92,29.97,2.5,SSE,5.8,-,N/A,,Clear,150,2013-10-03 04:15:00
11:35 PM,68.9,67.1,94,29.97,2.0,South,4.6,-,N/A,,Clear,170,2013-10-03 04:35:00
11:55 PM,68.9,67.1,94,29.97,2.0,South,4.6,-,N/A,,Mostly Cloudy,170,2013-10-03 04:55:00